Temperature
7 5 6 6 6 7 7 7 7 7 7 7 6 6 7 7 7 7 8 9 10 10 11 10 10 10 10 10 10 9 9 9 9 8 8 8 8 8 8 8 8 7 7 7
5 6 6 6 6 7 7 7 7 7 7 7 5 5 6 6 6 7 8 8 9 10 10 10 10 10 10 10 9 9 9 9 8 8 8 8 8 8 8 7 7 7 7 7
6 6 6 6 6 6 6 6 7 7 6 6 5 7 7 7 6 7 8 9 10 10 10 10 10 10 10 9 9 9 9 8 8 8 8 7 7 7 7 7 7 7 6 6
5 6 6 6 6 6 6 6 6 6 6 5 5 6 7 7 6 6 7 8 9 10 10 10 10 10 9 9 9 9 8 8 8 7 7 7 7 7 7 6 6 6 6 6
5 5 6 6 6 6 5 5 5 5 5 4 4 5 6 6 7 7 6 8 9 10 10 10 10 10 10 9 9 8 8 8 7 7 7 7 6 6 6 6 6 6 6 5
5 5 6 6 5 5 4 4 3 3 3 5 4 5 6 5 7 7 7 8 9 9 9 9 10 9 9 9 8 8 8 8 7 7 7 6 6 6 6 5 5 5 5 5
5 5 5 5 5 5 5 4 4 5 4 5 4 4 5 6 6 6 6 7 8 9 9 9 9 9 9 8 8 8 7 7 7 7 6 6 6 5 5 5 5 4 4 4
4 4 4 4 5 4 4 5 5 6 5 5 3 3 5 5 5 6 6 7 8 9 9 9 9 9 8 8 8 7 7 7 7 6 6 6 5 5 5 4 4 4 4 4
4 4 4 4 4 4 4 3 4 2 2 4 4 3 4 5 5 5 6 6 7 8 9 9 8 8 8 8 7 7 7 6 6 6 5 5 5 5 4 4 4 4 4 3
3 3 3 3 4 3 3 2 2 3 4 6 5 4 5 6 6 5 5 5 7 8 8 8 8 8 8 7 7 7 6 6 6 5 5 5 5 4 4 4 4 4 3 3
3 2 2 3 3 3 2 2 2 2 2 4 5 6 5 5 5 5 4 6 7 7 8 8 8 7 7 7 6 6 6 6 5 5 5 5 4 4 4 4 3 3 3 3
2 2 1 2 2 2 2 2 2 3 2 1 2 4 6 4 4 4 4 6 7 7 7 7 7 7 7 6 6 6 6 5 5 5 4 4 4 4 3 3 3 3 3 2
2 2 2 3 2 1 1 1 1 1 0 -0 2 5 5 3 4 4 5 6 6 7 7 7 7 7 6 6 6 5 5 5 5 4 4 4 4 3 3 3 3 3 2 2
3 1 3 4 3 1 0 -0 -0 1 1 0 1 4 4 4 4 4 5 6 6 6 6 6 6 6 6 6 5 5 5 4 4 4 4 4 3 3 3 3 3 2 2 2
2 2 1 2 2 1 1 1 -0 1 1 2 2 2 4 4 3 4 5 5 5 6 6 6 6 5 5 5 5 4 4 4 4 3 3 3 3 3 2 2 2 2 2 2
1 1 1 1 1 1 2 1 1 1 2 1 2 2 3 4 4 4 4 4 4 5 5 5 5 5 5 5 4 4 4 3 3 3 3 2 2 2 2 2 2 2 1 1
-0 0 1 1 1 2 1 1 1 1 1 1 2 4 3 3 2 3 4 4 4 5 5 5 5 4 4 4 4 3 3 3 3 2 2 2 2 2 1 1 1 1 1 1
-0 0 0 0 1 1 3 2 2 2 2 1 2 2 2 3 3 4 4 4 5 5 4 4 4 4 4 4 3 3 3 2 2 2 2 2 1 1 1 0 1 1 0 0
-0 0 -0 -0 0 1 2 2 1 1 1 1 1 2 2 2 2 3 5 4 5 4 4 4 4 4 3 3 3 2 2 2 2 1 1 1 1 0 0 0 0 -0 -0 -0
-0 -0 -0 -1 1 1 3 2 1 2 2 2 1 1 1 1 1 2 4 4 4 4 4 3 3 3 3 2 2 2 1 1 1 1 1 0 0 -0 -0 -0 -0 -1 -1 -1
-0 -0 -0 -1 0 1 2 1 2 2 2 2 2 1 1 0 2 3 3 3 3 3 3 3 3 2 2 2 1 1 1 1 0 0 0 -0 -0 -1 -1 -1 -1 -1 -1 -1
-1 -1 -1 -1 -0 1 1 0 1 2 2 2 2 2 2 2 2 2 3 3 3 3 2 2 2 2 2 1 1 1 0 0 -0 -0 -0 -1 -1 -1 -1 -1 -1 -1 -2 -2
-1 -1 -1 -0 1 1 1 1 2 2 2 2 2 2 2 2 2 2 2 2 2 2 2 1 1 1 1 0 0 -0 -0 -0 -1 -1 -1 -1 -1 -1 -2 -2 -2 -2 -2 -3
-2 -2 -2 -2 -1 -0 0 1 2 2 2 2 2 2 2 2 2 1 1 1 1 1 1 1 1 0 0 -0 -0 -1 -1 -1 -1 -1 -2 -2 -2 -2 -2 -2 -2 -2 -3 -3
-2 -3 -2 -2 -2 -1 0 1 2 2 2 1 1 1 1 1 1 1 1 0 0 -0 -0 -0 -0 -0 -1 -1 -1 -1 -2 -2 -2 -2 -2 -2 -2 -2 -2 -2 -3 -3 -3 -4
-4 -3 -2 -1 -1 -1 -0 1 1 1 1 1 1 0 0 0 -0 -0 -0 -0 -1 -1 -1 -1 -1 -1 -1 -1 -2 -2 -2 -2 -3 -3 -3 -3 -3 -3 -3 -3 -3 -3 -3 -4
Wind_Speed
2 3 7 9 9 3 5 5 4 4 1 2 8 12 14 9 7 9 9 9 9 10 8 6 6 5 4 4 3 3 3 2 1 0 1 1 2 3 3 3 4 5 5 5
3 6 6 5 4 3 3 3 3 3 2 2 6 12 12 9 8 10 11 11 11 8 6 6 6 5 5 5 4 4 4 3 3 2 2 2 2 2 3 4 4 5 5 5
8 4 4 6 5 4 4 5 4 3 4 2 5 9 6 4 3 5 7 8 9 10 9 7 6 6 5 5 5 5 4 4 4 2 1 1 2 2 2 4 4 5 6 6
5 3 3 5 5 7 5 4 4 2 1 4 2 5 7 4 4 5 7 7 8 8 7 6 7 6 6 7 5 4 4 4 3 2 2 2 2 4 5 4 5 6 6 7
5 4 5 5 5 7 4 3 3 2 2 3 1 3 9 3 5 7 7 8 8 7 7 7 7 7 6 5 4 4 3 3 3 3 3 3 4 5 4 5 6 7 6 6
2 2 3 5 2 5 6 6 5 4 3 4 5 6 8 5 7 5 4 5 6 6 6 6 5 4 3 3 3 3 3 3 3 3 4 4 5 6 6 7 7 6 5 6
2 2 2 4 5 3 4 5 3 3 1 7 3 5 10 7 5 5 5 5 5 5 5 5 5 4 4 4 3 3 3 4 4 4 4 5 6 6 7 7 7 7 6 6
7 5 6 5 6 7 6 7 7 7 6 5 2 7 8 5 4 4 4 4 3 4 5 5 6 5 5 5 4 4 4 5 5 4 5 5 5 5 6 7 7 7 7 8
8 5 1 2 2 8 7 5 4 5 2 3 6 7 9 4 2 1 1 1 3 4 4 5 5 5 5 5 5 5 5 5 5 5 5 6 6 6 7 8 7 7 8 8
6 4 1 1 4 3 5 8 5 5 5 5 6 6 5 4 2 1 2 3 4 4 4 4 4 4 4 4 4 4 5 5 5 5 5 6 6 7 7 7 8 9 10 9
4 5 1 2 6 8 5 4 4 4 4 5 4 7 6 6 4 4 5 5 5 5 4 4 3 3 3 3 3 3 4 4 5 5 5 6 7 7 7 8 9 9 10 10
5 5 3 4 1 2 4 6 7 6 5 4 4 8 4 4 5 5 5 4 3 4 3 3 3 2 2 3 3 3 4 4 5 5 5 6 7 7 8 9 10 9 10 10
7 6 4 1 1 0 3 4 4 4 4 5 5 8 3 3 3 3 3 3 2 2 3 2 2 3 3 3 3 4 4 5 5 5 5 6 7 7 9 10 10 10 10 10
5 4 6 9 6 6 5 5 6 6 5 6 9 9 8 6 4 4 3 3 3 3 3 3 3 4 4 4 3 4 5 5 5 5 5 7 8 8 9 10 10 10 10 10
4 4 3 2 2 4 5 7 10 10 9 9 9 10 12 8 6 5 4 4 3 4 4 4 4 4 4 4 4 4 5 4 4 5 6 8 9 9 9 10 10 10 10 11
3 3 2 1 3 3 4 8 12 12 10 10 10 11 9 6 3 4 5 5 5 6 5 5 5 5 4 4 4 4 5 5 4 5 7 8 8 9 9 10 10 10 10 10
4 5 4 2 1 0 8 11 13 8 8 9 13 14 5 4 6 6 6 6 7 7 6 6 6 5 5 5 4 5 5 5 5 6 7 8 8 9 10 10 10 11 10 10
6 5 3 3 3 7 8 3 9 10 9 11 9 8 5 7 5 5 5 6 7 6 6 6 5 5 4 3 3 3 4 4 5 7 8 8 9 10 10 10 11 10 9 9
6 6 4 4 4 7 7 3 5 7 8 9 12 11 6 1 3 5 4 5 7 6 6 5 4 4 3 3 3 3 4 4 5 7 8 9 9 10 10 11 11 10 9 10
4 4 5 4 4 7 6 2 3 5 5 4 6 8 4 3 1 5 3 2 4 3 3 2 2 1 2 3 2 2 4 5 7 8 9 9 9 9 10 11 10 9 8 9
5 4 6 5 5 7 5 2 5 5 6 2 3 4 4 6 6 4 3 3 2 1 2 1 1 1 3 2 2 3 5 6 7 8 8 9 9 9 9 9 8 8 8 8
8 6 6 5 5 8 2 5 6 5 2 1 2 2 4 4 4 3 3 2 2 2 2 1 1 3 3 2 2 4 6 7 7 7 8 9 9 8 8 8 8 8 7 8
6 7 6 8 7 2 4 4 3 2 2 2 2 3 2 2 3 3 3 2 2 2 2 2 2 3 4 3 2 5 6 6 6 7 8 9 9 8 7 7 8 7 6 6
3 2 3 3 6 4 4 3 2 2 3 2 2 2 2 2 3 3 3 2 2 2 3 2 2 3 5 5 4 4 5 5 6 7 8 8 8 8 8 6 6 6 6 6
4 5 3 4 5 3 4 4 3 2 2 2 2 1 2 2 2 2 2 2 2 3 3 2 3 4 5 5 5 5 5 5 6 7 7 8 7 7 7 7 6 7 5 6
4 5 6 6 5 4 5 3 1 2 3 3 2 2 1 2 2 1 1 2 2 3 3 3 4 4 5 5 5 5 5 5 5 6 7 6 6 6 6 7 8 9 8 12
Wind_Direction
106 124 199 203 195 178 161 174 225 252 267 220 249 266 272 264 240 238 234 225 220 224 230 217 208 203 191 193 199 206 212 228 206 259 276 290 289 296 298 290 288 289 292 294
96 232 215 161 169 169 157 193 244 286 345 252 288 279 271 256 237 227 221 218 218 219 219 215 209 195 194 200 207 215 217 223 226 226 230 231 256 276 279 285 293 289 291 292
187 207 171 155 157 178 213 204 214 247 336 5 324 299 276 270 240 229 218 216 215 210 213 212 207 207 207 212 213 218 224 229 232 228 252 316 327 313 300 296 293 289 290 287
209 222 147 151 179 168 224 211 184 196 323 297 16 292 285 279 289 245 224 215 214 213 208 207 206 210 215 219 217 219 224 229 234 217 214 237 270 277 272 279 282 285 282 281
213 184 162 181 194 168 173 105 120 135 162 300 265 228 280 287 263 248 232 223 221 218 209 208 209 213 217 213 212 219 226 238 240 229 222 235 260 269 280 285 285 287 283 279
210 200 179 176 125 145 130 83 63 56 79 270 223 194 272 237 221 238 234 225 222 215 214 216 214 207 216 216 215 217 228 252 248 242 239 236 254 272 283 288 289 290 289 285
207 225 189 136 109 116 125 111 53 349 319 247 182 206 250 249 235 229 240 244 228 210 206 210 211 213 221 223 228 229 233 259 258 254 254 250 253 260 266 275 280 285 288 286
177 223 202 184 170 169 180 158 168 195 223 268 205 233 255 263 274 262 253 242 213 208 213 216 215 214 217 222 226 230 240 259 260 259 265 264 260 263 268 269 272 273 275 275
180 209 92 159 143 141 150 186 156 128 119 280 260 276 296 271 282 274 253 209 225 229 228 226 223 220 221 225 229 227 239 260 264 264 270 275 270 270 274 277 275 275 275 279
152 170 190 146 95 45 146 143 126 146 169 239 279 270 252 269 251 261 253 245 253 257 248 236 226 228 230 233 242 238 239 253 265 267 270 284 281 277 278 282 280 279 280 279
135 139 123 148 189 177 140 148 146 142 165 175 246 268 229 227 237 237 245 251 251 251 248 238 234 240 246 250 245 251 258 264 274 276 279 285 288 287 287 284 281 281 281 280
153 133 171 223 257 206 178 174 157 168 207 192 200 267 280 243 259 248 254 262 265 258 256 247 240 243 247 254 262 265 267 269 274 281 287 287 290 293 293 289 285 283 282 282
149 140 124 47 312 245 202 191 175 135 129 169 192 260 306 327 298 260 247 263 277 284 280 272 258 252 250 253 263 270 273 274 282 287 288 292 294 295 292 290 288 286 284 284
135 149 181 195 206 172 194 198 179 158 180 206 225 253 290 297 293 292 282 273 273 272 270 265 264 261 259 259 260 270 279 281 289 293 292 294 294 293 292 292 292 288 285 284
135 178 201 223 154 158 190 197 191 201 203 208 233 236 254 257 252 258 260 267 274 277 279 264 256 260 267 274 277 278 285 289 294 295 294 293 296 297 296 296 297 295 288 285
138 159 160 234 204 203 235 217 205 219 224 235 259 264 249 251 247 256 257 254 263 270 270 266 262 263 268 270 277 285 288 293 297 293 293 297 302 302 301 300 300 299 295 291
156 146 154 217 195 92 258 219 200 206 211 202 231 247 241 237 241 242 247 248 250 258 263 262 260 258 260 261 264 271 282 296 300 298 300 303 304 303 302 304 304 302 302 298
159 152 159 155 134 228 246 205 193 208 229 216 232 248 236 235 246 247 237 235 248 252 253 256 257 262 269 269 275 284 297 303 302 302 304 305 305 303 304 305 304 304 304 301
180 165 159 166 208 267 284 221 174 193 252 231 232 249 256 269 329 292 244 224 238 245 247 250 249 254 264 268 277 297 304 304 302 302 303 303 303 303 305 305 305 306 306 305
170 168 164 170 192 234 251 224 168 131 271 254 211 238 242 134 250 272 277 263 259 254 244 256 265 269 271 283 289 295 298 302 301 301 302 303 303 302 301 300 302 304 303 303
157 177 193 194 218 255 253 197 132 162 241 255 200 220 198 195 220 255 289 299 283 283 283 272 267 278 276 284 288 290 297 295 298 302 305 306 306 302 299 301 304 305 306 308
171 174 189 176 207 247 202 138 175 214 243 205 214 213 205 224 254 280 292 298 310 323 325 317 302 296 294 287 283 292 294 299 306 309 310 310 310 309 312 310 310 309 309 313
196 190 185 194 216 252 182 196 224 212 231 246 237 245 212 237 267 281 289 292 301 305 308 310 287 298 306 301 283 287 298 310 316 317 315 314 315 316 314 311 314 316 317 315
248 173 167 236 258 255 248 258 258 223 229 258 253 246 205 239 267 280 285 296 309 315 314 314 309 303 307 310 304 291 304 314 316 316 316 317 319 319 320 318 316 317 319 317
207 171 186 241 268 294 273 246 251 257 265 276 282 266 246 242 271 270 270 279 292 304 308 305 289 288 296 307 308 311 313 316 317 315 314 317 319 317 319 321 315 314 308 305
194 182 190 227 229 219 249 259 252 243 260 257 259 286 289 226 244 269 274 279 292 305 313 312 305 303 306 311 312 315 316 316 314 315 317 317 318 318 318 320 320 319 319 322
Height
1464 1469 1470 1469 1470 1470 1473 1476 1475 1473 1473 1474 1473 1468 1461 1460 1461 1460 1460 1461 1463 1465 1469 1471 1474 1475 1477 1478 1478 1479 1479 1479 1478 1477 1476 1475 1474 1473 1472 1471 1470 1468 1467 1465
1468 1468 1464 1466 1469 1471 1473 1474 1475 1474 1473 1473 1472 1467 1458 1455 1454 1453 1454 1456 1458 1461 1464 1467 1469 1471 1473 1474 1475 1475 1476 1476 1475 1474 1474 1472 1471 1469 1468 1467 1466 1464 1463 1461
1462 1462 1461 1465 1469 1472 1473 1474 1474 1474 1474 1474 1474 1462 1454 1450 1449 1449 1449 1451 1453 1456 1459 1462 1465 1466 1468 1470 1471 1472 1472 1472 1472 1471 1470 1469 1467 1465 1464 1462 1461 1460 1458 1456
1461 1460 1461 1464 1467 1469 1472 1471 1473 1474 1478 1480 1478 1473 1454 1450 1449 1447 1446 1447 1449 1452 1455 1458 1460 1462 1464 1466 1468 1468 1469 1469 1468 1467 1466 1465 1463 1461 1459 1458 1456 1454 1453 1451
1459 1458 1459 1462 1463 1466 1469 1471 1474 1476 1480 1483 1481 1480 1457 1451 1447 1444 1443 1443 1445 1448 1451 1454 1456 1459 1461 1463 1464 1465 1465 1465 1465 1464 1463 1461 1459 1457 1455 1453 1451 1449 1447 1446
1457 1457 1457 1458 1461 1464 1469 1474 1478 1483 1484 1481 1476 1478 1458 1451 1443 1440 1440 1440 1442 1445 1448 1451 1454 1456 1458 1459 1460 1461 1461 1461 1461 1460 1459 1457 1455 1453 1450 1448 1446 1443 1441 1439
1456 1456 1456 1457 1462 1466 1467 1475 1483 1481 1487 1478 1475 1474 1456 1441 1439 1438 1438 1439 1440 1443 1445 1448 1450 1452 1454 1455 1456 1457 1457 1457 1456 1456 1455 1453 1451 1449 1446 1444 1441 1438 1435 1433
1456 1457 1455 1455 1457 1462 1466 1467 1476 1476 1476 1473 1475 1470 1449 1438 1437 1436 1436 1437 1439 1441 1443 1444 1446 1448 1450 1452 1453 1453 1453 1453 1452 1451 1450 1449 1447 1444 1442 1439 1436 1433 1430 1428
1452 1453 1453 1453 1454 1457 1465 1468 1469 1480 1485 1478 1468 1463 1448 1435 1435 1435 1435 1436 1437 1438 1440 1442 1444 1445 1447 1448 1449 1449 1449 1449 1448 1447 1446 1444 1442 1440 1437 1434 1431 1428 1425 1423
1445 1455 1454 1454 1455 1458 1459 1464 1473 1476 1475 1467 1462 1461 1449 1436 1434 1435 1435 1435 1436 1437 1438 1440 1441 1443 1444 1445 1446 1446 1446 1445 1444 1443 1441 1440 1438 1435 1432 1429 1426 1423 1420 1417
1443 1453 1458 1456 1456 1458 1462 1465 1466 1472 1473 1471 1465 1452 1437 1435 1433 1434 1434 1434 1435 1436 1437 1438 1439 1441 1442 1443 1443 1443 1442 1441 1440 1439 1437 1435 1433 1430 1427 1424 1420 1417 1414 1411
1441 1450 1458 1457 1456 1456 1456 1458 1463 1464 1472 1477 1473 1454 1432 1433 1432 1433 1433 1433 1434 1435 1436 1437 1438 1438 1439 1439 1439 1439 1438 1437 1436 1434 1433 1430 1428 1424 1421 1418 1415 1411 1408 1405
1438 1447 1455 1455 1460 1460 1458 1459 1460 1463 1470 1477 1469 1448 1432 1432 1431 1431 1432 1432 1433 1434 1434 1435 1435 1436 1436 1436 1436 1435 1434 1433 1432 1430 1428 1425 1422 1419 1416 1412 1409 1405 1402 1399
1433 1441 1442 1442 1440 1449 1455 1457 1458 1459 1464 1468 1462 1445 1434 1432 1431 1431 1431 1431 1431 1432 1432 1432 1433 1433 1433 1433 1432 1432 1430 1429 1428 1425 1423 1420 1417 1414 1410 1407 1403 1399 1396 1392
1432 1439 1441 1440 1441 1445 1445 1449 1453 1453 1451 1451 1445 1444 1433 1430 1430 1430 1430 1430 1430 1430 1430 1430 1430 1430 1430 1429 1428 1428 1426 1425 1423 1421 1418 1415 1412 1409 1405 1401 1397 1393 1390 1386
1432 1438 1440 1441 1440 1441 1441 1442 1445 1445 1444 1444 1441 1436 1427 1427 1428 1428 1428 1428 1427 1427 1427 1427 1427 1427 1426 1426 1425 1424 1422 1421 1419 1416 1413 1410 1407 1403 1399 1395 1391 1387 1383 1380
1433 1437 1440 1442 1441 1439 1440 1432 1435 1437 1435 1436 1434 1425 1423 1425 1425 1425 1424 1424 1424 1424 1424 1424 1424 1424 1423 1422 1421 1420 1418 1417 1414 1412 1409 1405 1402 1398 1394 1390 1386 1381 1377 1373
1430 1434 1438 1442 1443 1442 1424 1420 1421 1424 1424 1425 1422 1419 1420 1421 1421 1421 1421 1421 1421 1421 1421 1421 1421 1420 1420 1419 1418 1417 1415 1413 1410 1407 1404 1401 1397 1393 1389 1385 1380 1376 1372 1367
1426 1430 1437 1440 1440 1433 1423 1419 1421 1424 1422 1418 1418 1416 1417 1419 1419 1418 1418 1418 1418 1418 1418 1418 1418 1417 1416 1415 1414 1413 1411 1409 1406 1403 1400 1397 1393 1388 1384 1380 1375 1371 1367 1362
1425 1427 1434 1437 1435 1430 1417 1415 1415 1419 1421 1413 1414 1414 1416 1418 1422 1417 1415 1416 1415 1416 1415 1415 1414 1414 1413 1412 1411 1409 1407 1404 1402 1399 1396 1392 1388 1384 1380 1376 1371 1367 1363 1358
1425 1428 1430 1432 1431 1424 1414 1413 1415 1422 1417 1411 1410 1411 1413 1415 1415 1414 1413 1413 1413 1413 1413 1412 1411 1411 1410 1409 1407 1405 1403 1400 1398 1395 1391 1388 1384 1380 1376 1372 1367 1363 1359 1354
1420 1425 1427 1428 1428 1422 1412 1413 1415 1412 1409 1409 1409 1410 1411 1411 1411 1411 1411 1411 1410 1410 1410 1409 1408 1408 1407 1405 1404 1401 1399 1396 1394 1391 1387 1384 1380 1376 1372 1368 1364 1360 1355 1351
1415 1415 1416 1417 1414 1409 1408 1408 1408 1408 1408 1408 1408 1409 1409 1409 1409 1409 1409 1409 1408 1408 1407 1407 1406 1404 1403 1402 1400 1397 1395 1392 1389 1386 1383 1379 1376 1373 1369 1365 1360 1356 1352 1348
1412 1411 1413 1413 1409 1407 1406 1406 1406 1407 1407 1407 1407 1408 1408 1407 1407 1407 1407 1407 1406 1406 1405 1404 1403 1401 1400 1398 1396 1394 1391 1389 1386 1382 1379 1376 1372 1369 1365 1362 1358 1354 1350 1346
1407 1409 1410 1410 1407 1405 1403 1403 1404 1405 1405 1406 1406 1406 1406 1406 1405 1405 1404 1404 1404 1403 1403 1402 1400 1398 1397 1395 1392 1390 1388 1385 1382 1379 1376 1373 1369 1366 1362 1359 1355 1352 1348 1346
1404 1406 1407 1404 1402 1403 1401 1401 1402 1403 1403 1403 1403 1403 1403 1404 1403 1403 1402 1402 1402 1401 1400 1398 1397 1395 1393 1391 1389 1387 1384 1382 1379 1375 1372 1369 1366 1363 1359 1355 1352 1349 1347 1343